Year,Month,Day,Hour,Minute,Value (Times are PST for temperature in C)
2017,12,12,00,00,1.50
2017,12,12,00,01,1.50
2017,12,12,00,02,1.50
2017,12,12,00,03,1.50
2017,12,12,00,04,1.40
2017,12,12,00,05,1.40
2017,12,12,00,06,1.40
2017,12,12,00,07,1.40
2017,12,12,00,08,1.40
2017,12,12,00,09,1.40
2017,12,12,00,10,1.40
2017,12,12,00,11,1.40
2017,12,12,00,12,1.40
2017,12,12,00,13,1.40
2017,12,12,00,14,1.40
2017,12,12,00,15,1.40
2017,12,12,00,16,1.40
2017,12,12,00,17,1.40
2017,12,12,00,18,1.40
2017,12,12,00,19,1.40
2017,12,12,00,20,1.50
2017,12,12,00,21,1.50
2017,12,12,00,22,1.60
2017,12,12,00,23,1.60
2017,12,12,00,24,1.60
2017,12,12,00,25,1.60
2017,12,12,00,26,1.70
2017,12,12,00,27,1.70
2017,12,12,00,28,1.70
2017,12,12,00,29,1.70
2017,12,12,00,30,1.80
2017,12,12,00,31,1.80
2017,12,12,00,32,1.80
2017,12,12,00,33,1.80
2017,12,12,00,34,1.80
2017,12,12,00,35,1.80
2017,12,12,00,36,1.70
2017,12,12,00,37,1.70
2017,12,12,00,38,1.70
2017,12,12,00,39,1.70
2017,12,12,00,40,1.70
2017,12,12,00,41,1.70
2017,12,12,00,42,1.70
2017,12,12,00,43,1.70
2017,12,12,00,44,1.70
2017,12,12,00,45,1.70
2017,12,12,00,46,1.70
2017,12,12,00,47,1.70
2017,12,12,00,48,1.70
2017,12,12,00,49,1.70
2017,12,12,00,50,1.70
2017,12,12,00,51,1.70
2017,12,12,00,52,1.70
2017,12,12,00,53,1.70
2017,12,12,00,54,1.70
2017,12,12,00,55,1.70
2017,12,12,00,56,1.70
2017,12,12,00,57,1.70
2017,12,12,00,58,1.70
2017,12,12,00,59,1.70
2017,12,12,01,00,1.70
2017,12,12,01,01,1.70
2017,12,12,01,02,1.70
2017,12,12,01,03,1.70
2017,12,12,01,04,1.70
2017,12,12,01,05,1.70
2017,12,12,01,06,1.70
2017,12,12,01,07,1.80
2017,12,12,01,08,1.80
2017,12,12,01,09,1.80
2017,12,12,01,10,1.80
2017,12,12,01,11,1.80
2017,12,12,01,12,1.90
2017,12,12,01,13,1.90
2017,12,12,01,14,1.90
2017,12,12,01,15,1.90
2017,12,12,01,16,2.00
2017,12,12,01,17,2.00
2017,12,12,01,18,2.10
2017,12,12,01,19,2.10
2017,12,12,01,20,2.10
2017,12,12,01,21,2.10
2017,12,12,01,22,2.20
2017,12,12,01,23,2.20
2017,12,12,01,24,2.20
2017,12,12,01,25,2.20
2017,12,12,01,26,2.20
2017,12,12,01,27,2.20
2017,12,12,01,28,2.20
2017,12,12,01,29,2.20
2017,12,12,01,30,2.30
2017,12,12,01,31,2.30
2017,12,12,01,32,2.30
2017,12,12,01,33,2.30
2017,12,12,01,34,2.30
2017,12,12,01,35,2.30
2017,12,12,01,36,2.30
2017,12,12,01,37,2.30
2017,12,12,01,38,2.30
2017,12,12,01,39,2.30
2017,12,12,01,40,2.30
2017,12,12,01,41,2.30
2017,12,12,01,42,2.30
2017,12,12,01,43,2.30
2017,12,12,01,44,2.30
2017,12,12,01,45,2.30
2017,12,12,01,46,2.30
2017,12,12,01,47,2.30
2017,12,12,01,48,2.30
2017,12,12,01,49,2.30
2017,12,12,01,50,2.30
2017,12,12,01,51,2.30
2017,12,12,01,52,2.30
2017,12,12,01,53,2.30
2017,12,12,01,54,2.40
2017,12,12,01,55,2.40
2017,12,12,01,56,2.40
2017,12,12,01,57,2.40
2017,12,12,01,58,2.40
2017,12,12,01,59,2.50
2017,12,12,02,00,2.50
2017,12,12,02,01,2.50
2017,12,12,02,02,2.50
2017,12,12,02,03,2.60
2017,12,12,02,04,2.60
2017,12,12,02,05,2.60
2017,12,12,02,06,2.60
2017,12,12,02,07,2.60
2017,12,12,02,08,2.60
2017,12,12,02,09,2.60
2017,12,12,02,10,2.60
2017,12,12,02,11,2.60
2017,12,12,02,12,2.70
2017,12,12,02,13,2.70
2017,12,12,02,14,2.70
2017,12,12,02,15,2.70
2017,12,12,02,16,2.70
2017,12,12,02,17,2.70
2017,12,12,02,18,2.70
2017,12,12,02,19,2.70
2017,12,12,02,20,2.60
2017,12,12,02,21,2.60
2017,12,12,02,22,2.60
2017,12,12,02,23,2.60
2017,12,12,02,24,2.60
2017,12,12,02,25,2.60
2017,12,12,02,26,2.60
2017,12,12,02,27,2.60
2017,12,12,02,28,2.60
2017,12,12,02,29,2.60
2017,12,12,02,30,2.60
2017,12,12,02,31,2.60
2017,12,12,02,32,2.60
2017,12,12,02,33,2.60
2017,12,12,02,34,2.60
2017,12,12,02,35,2.60
2017,12,12,02,36,2.60
2017,12,12,02,37,2.60
2017,12,12,02,38,2.60
2017,12,12,02,39,2.60
2017,12,12,02,40,2.60
2017,12,12,02,41,2.60
2017,12,12,02,42,2.60
2017,12,12,02,43,2.60
2017,12,12,02,44,2.60
2017,12,12,02,45,2.60
2017,12,12,02,46,2.60
2017,12,12,02,47,2.60
2017,12,12,02,48,2.60
2017,12,12,02,49,2.60
2017,12,12,02,50,2.60
2017,12,12,02,51,2.70
2017,12,12,02,52,2.70
2017,12,12,02,53,2.70
2017,12,12,02,54,2.70
2017,12,12,02,55,2.70
2017,12,12,02,56,2.70
2017,12,12,02,57,2.70
2017,12,12,02,58,2.70
2017,12,12,02,59,2.80
2017,12,12,03,00,2.80
2017,12,12,03,01,2.80
2017,12,12,03,02,2.80
2017,12,12,03,03,2.80
2017,12,12,03,04,2.80
2017,12,12,03,05,2.80
2017,12,12,03,06,2.80
2017,12,12,03,07,2.80
2017,12,12,03,08,2.90
2017,12,12,03,09,2.90
2017,12,12,03,10,2.90
2017,12,12,03,11,2.90
2017,12,12,03,12,3.00
2017,12,12,03,13,3.00
2017,12,12,03,14,3.00
2017,12,12,03,15,3.00
2017,12,12,03,16,3.00
2017,12,12,03,17,3.00
2017,12,12,03,18,3.00
2017,12,12,03,19,3.00
2017,12,12,03,20,3.00
2017,12,12,03,21,3.00
2017,12,12,03,22,3.00
2017,12,12,03,23,3.00
2017,12,12,03,24,3.00
2017,12,12,03,25,3.00
2017,12,12,03,26,3.00
2017,12,12,03,27,3.00
2017,12,12,03,28,3.00
2017,12,12,03,29,3.10
2017,12,12,03,30,3.10
2017,12,12,03,31,3.10
2017,12,12,03,32,3.10
2017,12,12,03,33,3.10
2017,12,12,03,34,3.10
2017,12,12,03,35,3.10
2017,12,12,03,36,3.10
2017,12,12,03,37,3.10
2017,12,12,03,38,3.20
2017,12,12,03,39,3.20
2017,12,12,03,40,3.20
2017,12,12,03,41,3.20
2017,12,12,03,42,3.20
2017,12,12,03,43,3.20
2017,12,12,03,44,3.20
2017,12,12,03,45,3.20
2017,12,12,03,46,3.20
2017,12,12,03,47,3.20
2017,12,12,03,48,3.20
2017,12,12,03,49,3.20
2017,12,12,03,50,3.20
2017,12,12,03,51,3.20
2017,12,12,03,52,3.20
2017,12,12,03,53,3.20
2017,12,12,03,54,3.20
2017,12,12,03,55,3.20
2017,12,12,03,56,3.20
2017,12,12,03,57,3.20
2017,12,12,03,58,3.20
2017,12,12,03,59,3.30
2017,12,12,04,00,3.30
2017,12,12,04,01,3.30
2017,12,12,04,02,3.30
2017,12,12,04,03,3.30
2017,12,12,04,04,3.30
2017,12,12,04,05,3.30
2017,12,12,04,06,3.30
2017,12,12,04,07,3.30
2017,12,12,04,08,3.40
2017,12,12,04,09,3.40
2017,12,12,04,10,3.40
2017,12,12,04,11,3.40
2017,12,12,04,12,3.40
2017,12,12,04,13,3.40
2017,12,12,04,14,3.40
2017,12,12,04,15,3.40
2017,12,12,04,16,3.40
2017,12,12,04,17,3.40
2017,12,12,04,18,3.40
2017,12,12,04,19,3.40
2017,12,12,04,20,3.40
2017,12,12,04,21,3.40
2017,12,12,04,22,3.40
2017,12,12,04,23,3.40
2017,12,12,04,24,3.40
2017,12,12,04,25,3.50
2017,12,12,04,26,3.50
2017,12,12,04,27,3.50
2017,12,12,04,28,3.50
2017,12,12,04,29,3.50
2017,12,12,04,30,3.50
2017,12,12,04,31,3.50
2017,12,12,04,32,3.50
2017,12,12,04,33,3.50
2017,12,12,04,34,3.60
2017,12,12,04,35,3.60
2017,12,12,04,36,3.60
2017,12,12,04,37,3.60
2017,12,12,04,38,3.60
2017,12,12,04,39,3.60
2017,12,12,04,40,3.60
2017,12,12,04,41,3.60
2017,12,12,04,42,3.60
2017,12,12,04,43,3.70
2017,12,12,04,44,3.70
2017,12,12,04,45,3.70
2017,12,12,04,46,3.70
2017,12,12,04,47,3.70
2017,12,12,04,48,3.70
2017,12,12,04,49,3.70
2017,12,12,04,50,3.70
2017,12,12,04,51,3.70
2017,12,12,04,52,3.80
2017,12,12,04,53,3.80
2017,12,12,04,54,3.80
2017,12,12,04,55,3.80
2017,12,12,04,56,3.80
2017,12,12,04,57,3.80
2017,12,12,04,58,3.80
2017,12,12,04,59,3.80
2017,12,12,05,00,3.80
2017,12,12,05,01,3.80
2017,12,12,05,02,3.80
2017,12,12,05,03,3.80
2017,12,12,05,04,3.80
2017,12,12,05,05,3.80
2017,12,12,05,06,3.80
2017,12,12,05,07,3.80
2017,12,12,05,08,3.80
2017,12,12,05,09,3.80
2017,12,12,05,10,3.80
2017,12,12,05,11,3.80
2017,12,12,05,12,3.80
2017,12,12,05,13,3.80
2017,12,12,05,14,3.80
2017,12,12,05,15,3.80
2017,12,12,05,16,3.90
2017,12,12,05,17,3.90
2017,12,12,05,18,3.90
2017,12,12,05,19,3.90
2017,12,12,05,20,3.90
2017,12,12,05,21,3.90
2017,12,12,05,22,4.00
2017,12,12,05,23,4.00
2017,12,12,05,24,4.00
2017,12,12,05,25,4.00
2017,12,12,05,26,4.00
2017,12,12,05,27,4.10
2017,12,12,05,28,4.10
2017,12,12,05,29,4.10
2017,12,12,05,30,4.10
2017,12,12,05,31,4.10
2017,12,12,05,32,4.10
2017,12,12,05,33,4.10
2017,12,12,05,34,4.10
2017,12,12,05,35,4.20
2017,12,12,05,36,4.20
2017,12,12,05,37,4.20
2017,12,12,05,38,4.20
2017,12,12,05,39,4.20
2017,12,12,05,40,4.20
2017,12,12,05,41,4.20
2017,12,12,05,42,4.20
2017,12,12,05,43,4.20
2017,12,12,05,44,4.20
2017,12,12,05,45,4.30
2017,12,12,05,46,4.30
2017,12,12,05,47,4.30
2017,12,12,05,48,4.30
2017,12,12,05,49,4.30
2017,12,12,05,50,4.30
2017,12,12,05,51,4.30
2017,12,12,05,52,4.30
2017,12,12,05,53,4.30
2017,12,12,05,54,4.30
2017,12,12,05,55,4.30
2017,12,12,05,56,4.30
2017,12,12,05,57,4.30
2017,12,12,05,58,4.30
2017,12,12,05,59,4.30
2017,12,12,06,00,4.30
2017,12,12,06,01,4.30
2017,12,12,06,02,4.30
2017,12,12,06,03,4.30
2017,12,12,06,04,4.30
2017,12,12,06,05,4.30
2017,12,12,06,06,4.30
2017,12,12,06,07,4.30
2017,12,12,06,08,4.30
2017,12,12,06,09,4.30
2017,12,12,06,10,4.30
2017,12,12,06,11,4.30
2017,12,12,06,12,4.30
2017,12,12,06,13,4.30
2017,12,12,06,14,4.30
2017,12,12,06,15,4.30
2017,12,12,06,16,4.30
2017,12,12,06,17,4.30
2017,12,12,06,18,4.30
2017,12,12,06,19,4.30
2017,12,12,06,20,4.30
2017,12,12,06,21,4.30
2017,12,12,06,22,4.30
2017,12,12,06,23,4.30
2017,12,12,06,24,4.30
2017,12,12,06,25,4.30
2017,12,12,06,26,4.40
2017,12,12,06,27,4.40
2017,12,12,06,28,4.40
2017,12,12,06,29,4.40
2017,12,12,06,30,4.40
2017,12,12,06,31,4.40
2017,12,12,06,32,4.40
2017,12,12,06,33,4.40
2017,12,12,06,34,4.40
2017,12,12,06,35,4.40
2017,12,12,06,36,4.40
2017,12,12,06,37,4.40
2017,12,12,06,38,4.50
2017,12,12,06,39,4.50
2017,12,12,06,40,4.50
2017,12,12,06,41,4.50
2017,12,12,06,42,4.50
2017,12,12,06,43,4.50
2017,12,12,06,44,4.60
2017,12,12,06,45,4.60
2017,12,12,06,46,4.60
2017,12,12,06,47,4.60
2017,12,12,06,48,4.60
2017,12,12,06,49,4.60
2017,12,12,06,50,4.50
2017,12,12,06,51,4.50
2017,12,12,06,52,4.50
2017,12,12,06,53,4.50
2017,12,12,06,54,4.40
2017,12,12,06,55,4.40
2017,12,12,06,56,4.40
2017,12,12,06,57,4.50
2017,12,12,06,58,4.50
2017,12,12,06,59,4.50
2017,12,12,07,00,4.50
2017,12,12,07,01,4.60
2017,12,12,07,02,4.60
2017,12,12,07,03,4.60
2017,12,12,07,04,4.60
2017,12,12,07,05,4.60
2017,12,12,07,06,4.60
2017,12,12,07,07,4.60
2017,12,12,07,08,4.60
2017,12,12,07,09,4.70
2017,12,12,07,10,4.70
2017,12,12,07,11,4.70
2017,12,12,07,12,4.70
2017,12,12,07,13,4.70
2017,12,12,07,14,4.70
2017,12,12,07,15,4.80
2017,12,12,07,16,4.80
2017,12,12,07,17,4.80
2017,12,12,07,18,4.80
2017,12,12,07,19,4.80
2017,12,12,07,20,4.80
2017,12,12,07,21,4.80
2017,12,12,07,22,4.80
2017,12,12,07,23,4.80
2017,12,12,07,24,4.80
2017,12,12,07,25,4.80
2017,12,12,07,26,4.80
2017,12,12,07,27,4.80
2017,12,12,07,28,4.90
2017,12,12,07,29,4.90
2017,12,12,07,30,4.90
2017,12,12,07,31,4.90
2017,12,12,07,32,4.90
2017,12,12,07,33,4.90
2017,12,12,07,34,5.00
2017,12,12,07,35,5.00
2017,12,12,07,36,5.00
2017,12,12,07,37,5.10
2017,12,12,07,38,5.10
2017,12,12,07,39,5.20
2017,12,12,07,40,5.20
2017,12,12,07,41,5.20
2017,12,12,07,42,5.30
2017,12,12,07,43,5.30
2017,12,12,07,44,5.30
2017,12,12,07,45,5.30
2017,12,12,07,46,5.30
2017,12,12,07,47,5.30
2017,12,12,07,48,5.30
2017,12,12,07,49,5.30
2017,12,12,07,50,5.30
2017,12,12,07,51,5.30
2017,12,12,07,52,5.20
2017,12,12,07,53,5.20
2017,12,12,07,54,5.20
2017,12,12,07,55,5.10
2017,12,12,07,56,5.10
2017,12,12,07,57,5.10
2017,12,12,07,58,5.10
2017,12,12,07,59,5.10
2017,12,12,08,00,5.10
2017,12,12,08,01,5.10
2017,12,12,08,02,5.10
2017,12,12,08,03,5.20
2017,12,12,08,04,5.20
2017,12,12,08,05,5.20
2017,12,12,08,06,5.20
2017,12,12,08,07,5.20
2017,12,12,08,08,5.20
2017,12,12,08,09,5.30
2017,12,12,08,10,5.30
2017,12,12,08,11,5.30
2017,12,12,08,12,5.30
2017,12,12,08,13,5.30
2017,12,12,08,14,5.30
2017,12,12,08,15,5.30
2017,12,12,08,16,5.30
2017,12,12,08,17,5.30
2017,12,12,08,18,5.30
2017,12,12,08,19,5.30
2017,12,12,08,20,5.30
2017,12,12,08,21,5.30
2017,12,12,08,22,5.30
2017,12,12,08,23,5.40
2017,12,12,08,24,5.40
2017,12,12,08,25,5.40
2017,12,12,08,26,5.50
2017,12,12,08,27,5.50
2017,12,12,08,28,5.50
2017,12,12,08,29,5.60
2017,12,12,08,30,5.60
2017,12,12,08,31,5.50
2017,12,12,08,32,5.50
2017,12,12,08,33,5.50
2017,12,12,08,34,5.40
2017,12,12,08,35,5.40
2017,12,12,08,36,5.40
2017,12,12,08,37,5.40
2017,12,12,08,38,5.40
2017,12,12,08,39,5.40
2017,12,12,08,40,5.40
2017,12,12,08,41,5.50
2017,12,12,08,42,5.50
2017,12,12,08,43,5.50
2017,12,12,08,44,5.50
2017,12,12,08,45,5.50
2017,12,12,08,46,5.50
2017,12,12,08,47,5.50
2017,12,12,08,48,5.40
2017,12,12,08,49,5.40
2017,12,12,08,50,5.40
2017,12,12,08,51,5.40
2017,12,12,08,52,5.40
2017,12,12,08,53,5.40
2017,12,12,08,54,5.40
2017,12,12,08,55,5.40
2017,12,12,08,56,5.40
2017,12,12,08,57,5.40
2017,12,12,08,58,5.40
2017,12,12,08,59,5.40
2017,12,12,09,00,5.40
2017,12,12,09,01,5.40
2017,12,12,09,02,5.40
2017,12,12,09,03,5.50
2017,12,12,09,04,5.50
2017,12,12,09,05,5.50
2017,12,12,09,06,5.50
2017,12,12,09,07,5.50
2017,12,12,09,08,5.50
2017,12,12,09,09,5.50
2017,12,12,09,10,5.50
2017,12,12,09,11,5.60
2017,12,12,09,12,5.60
2017,12,12,09,13,5.60
2017,12,12,09,14,5.60
2017,12,12,09,15,5.60
2017,12,12,09,16,5.60
2017,12,12,09,17,5.60
2017,12,12,09,18,5.60
2017,12,12,09,19,5.60
2017,12,12,09,20,5.70
2017,12,12,09,21,5.70
2017,12,12,09,22,5.70
2017,12,12,09,23,5.70
2017,12,12,09,24,5.70
2017,12,12,09,25,5.70
2017,12,12,09,26,5.70
2017,12,12,09,27,5.70
2017,12,12,09,28,5.70
2017,12,12,09,29,5.70
2017,12,12,09,30,5.70
2017,12,12,09,31,5.80
2017,12,12,09,32,5.80
2017,12,12,09,33,5.80
2017,12,12,09,34,5.80
2017,12,12,09,35,5.80
2017,12,12,09,36,5.80
2017,12,12,09,37,5.80
2017,12,12,09,38,5.80
2017,12,12,09,39,5.80
2017,12,12,09,40,5.80
2017,12,12,09,41,5.80
2017,12,12,09,42,5.80
2017,12,12,09,43,5.80
2017,12,12,09,44,5.80
2017,12,12,09,45,5.90
2017,12,12,09,46,5.90
2017,12,12,09,47,5.90
2017,12,12,09,48,5.90
2017,12,12,09,49,5.90
2017,12,12,09,50,5.90
2017,12,12,09,51,5.90
2017,12,12,09,52,6.00
2017,12,12,09,53,6.00
2017,12,12,09,54,6.00
2017,12,12,09,55,6.10
2017,12,12,09,56,6.10
2017,12,12,09,57,6.10
2017,12,12,09,58,6.10
2017,12,12,09,59,6.10
2017,12,12,10,00,6.20
2017,12,12,10,01,6.20
2017,12,12,10,02,6.20
2017,12,12,10,03,6.20
2017,12,12,10,04,6.20
2017,12,12,10,05,6.20
2017,12,12,10,06,6.30
2017,12,12,10,07,6.30
2017,12,12,10,08,6.30
2017,12,12,10,09,6.30
2017,12,12,10,10,6.30
2017,12,12,10,11,6.30
2017,12,12,10,12,6.30
2017,12,12,10,13,6.40
2017,12,12,10,14,6.40
2017,12,12,10,15,6.40
2017,12,12,10,16,6.40
2017,12,12,10,17,6.50
2017,12,12,10,18,6.50
2017,12,12,10,19,6.50
2017,12,12,10,20,6.60
2017,12,12,10,21,6.60
2017,12,12,10,22,6.60
2017,12,12,10,23,6.60
2017,12,12,10,24,6.70
2017,12,12,10,25,6.70
2017,12,12,10,26,6.70
2017,12,12,10,27,6.70
2017,12,12,10,28,6.70
2017,12,12,10,29,6.80
2017,12,12,10,30,6.80
2017,12,12,10,31,6.80
2017,12,12,10,32,6.80
2017,12,12,10,33,6.80
2017,12,12,10,34,6.80
2017,12,12,10,35,6.90
2017,12,12,10,36,6.90
2017,12,12,10,37,6.90
2017,12,12,10,38,6.90
2017,12,12,10,39,7.00
2017,12,12,10,40,7.00
2017,12,12,10,41,7.10
2017,12,12,10,42,7.10
2017,12,12,10,43,7.10
2017,12,12,10,44,7.10
2017,12,12,10,45,7.10
2017,12,12,10,46,7.10
2017,12,12,10,47,7.10
2017,12,12,10,48,7.20
2017,12,12,10,49,7.20
2017,12,12,10,50,7.20
2017,12,12,10,51,7.20
2017,12,12,10,52,7.20
2017,12,12,10,53,7.20
2017,12,12,10,54,7.20
2017,12,12,10,55,7.20
2017,12,12,10,56,7.30
2017,12,12,10,57,7.30
2017,12,12,10,58,7.30
2017,12,12,10,59,7.30
2017,12,12,11,00,7.30
2017,12,12,11,01,7.30
2017,12,12,11,02,7.40
2017,12,12,11,03,7.40
2017,12,12,11,04,7.40
2017,12,12,11,05,7.40
2017,12,12,11,06,7.40
2017,12,12,11,07,7.40
2017,12,12,11,08,7.40
2017,12,12,11,09,7.50
2017,12,12,11,10,7.50
2017,12,12,11,11,7.50
2017,12,12,11,12,7.50
2017,12,12,11,13,7.50
2017,12,12,11,14,7.60
2017,12,12,11,15,7.60
2017,12,12,11,16,7.60
2017,12,12,11,17,7.60
2017,12,12,11,18,7.60
2017,12,12,11,19,7.60
2017,12,12,11,20,7.70
2017,12,12,11,21,7.70
2017,12,12,11,22,7.70
2017,12,12,11,23,7.70
2017,12,12,11,24,7.70
2017,12,12,11,25,7.70
2017,12,12,11,26,7.70
2017,12,12,11,27,7.70
2017,12,12,11,28,7.70
2017,12,12,11,29,7.70
2017,12,12,11,30,7.60
2017,12,12,11,31,7.60
2017,12,12,11,32,7.60
2017,12,12,11,33,7.60
2017,12,12,11,34,7.60
2017,12,12,11,35,7.60
2017,12,12,11,36,7.60
2017,12,12,11,37,7.60
2017,12,12,11,38,7.60
2017,12,12,11,39,7.60
2017,12,12,11,40,7.60
2017,12,12,11,41,7.60
2017,12,12,11,42,7.60
2017,12,12,11,43,7.60
2017,12,12,11,44,7.60
2017,12,12,11,45,7.60
2017,12,12,11,46,7.60
2017,12,12,11,47,7.60
2017,12,12,11,48,7.60
2017,12,12,11,49,7.60
2017,12,12,11,50,7.60
2017,12,12,11,51,7.60
2017,12,12,11,52,7.60
2017,12,12,11,53,7.60
2017,12,12,11,54,7.60
2017,12,12,11,55,7.60
2017,12,12,11,56,7.60
2017,12,12,11,57,7.60
2017,12,12,11,58,7.60
2017,12,12,11,59,7.60
2017,12,12,12,00,7.60
2017,12,12,12,01,7.60
2017,12,12,12,02,7.60
2017,12,12,12,03,7.70
2017,12,12,12,04,7.70
2017,12,12,12,05,7.70
2017,12,12,12,06,7.70
2017,12,12,12,07,7.70
2017,12,12,12,08,7.70
2017,12,12,12,09,7.70
2017,12,12,12,10,7.80
2017,12,12,12,11,7.80
2017,12,12,12,12,7.80
2017,12,12,12,13,7.80
2017,12,12,12,14,7.80
2017,12,12,12,15,7.80
2017,12,12,12,16,7.80
2017,12,12,12,17,7.80
2017,12,12,12,18,7.80
2017,12,12,12,19,7.80
2017,12,12,12,20,7.80
2017,12,12,12,21,7.80
2017,12,12,12,22,7.90
2017,12,12,12,23,7.90
2017,12,12,12,24,7.90
2017,12,12,12,25,7.90
2017,12,12,12,26,8.00
2017,12,12,12,27,8.00
2017,12,12,12,28,8.00
2017,12,12,12,29,8.10
2017,12,12,12,30,8.10
2017,12,12,12,31,8.10
2017,12,12,12,32,8.10
2017,12,12,12,33,8.10
2017,12,12,12,34,8.20
2017,12,12,12,35,8.20
2017,12,12,12,36,8.20
2017,12,12,12,37,8.20
2017,12,12,12,38,8.20
2017,12,12,12,39,8.20
2017,12,12,12,40,8.20
2017,12,12,12,41,8.20
2017,12,12,12,42,8.20
2017,12,12,12,43,8.20
2017,12,12,12,44,8.20
2017,12,12,12,45,8.30
2017,12,12,12,46,8.30
2017,12,12,12,47,8.30
2017,12,12,12,48,8.30
2017,12,12,12,49,8.30
2017,12,12,12,50,8.30
2017,12,12,12,51,8.30
2017,12,12,12,52,8.30
2017,12,12,12,53,8.30
2017,12,12,12,54,8.40
2017,12,12,12,55,8.40
2017,12,12,12,56,8.40
2017,12,12,12,57,8.40
2017,12,12,12,58,8.50
2017,12,12,12,59,8.50
2017,12,12,13,00,8.50
2017,12,12,13,01,8.60
2017,12,12,13,02,8.60
2017,12,12,13,03,8.60
2017,12,12,13,04,8.70
2017,12,12,13,05,8.70
2017,12,12,13,06,8.70
2017,12,12,13,07,8.80
2017,12,12,13,08,8.80
2017,12,12,13,09,8.80
2017,12,12,13,10,8.90
2017,12,12,13,11,8.90
2017,12,12,13,12,9.00
2017,12,12,13,13,9.00
2017,12,12,13,14,9.10
2017,12,12,13,15,9.10
2017,12,12,13,16,9.20
2017,12,12,13,17,9.20
2017,12,12,13,18,9.20
2017,12,12,13,19,9.30
2017,12,12,13,20,9.30
2017,12,12,13,21,9.30
2017,12,12,13,22,9.30
2017,12,12,13,23,9.30
2017,12,12,13,24,9.30
2017,12,12,13,25,9.30
2017,12,12,13,26,9.40
2017,12,12,13,27,9.40
2017,12,12,13,28,9.40
2017,12,12,13,29,9.40
2017,12,12,13,30,9.40
2017,12,12,13,31,9.50
2017,12,12,13,32,9.50
2017,12,12,13,33,9.50
2017,12,12,13,34,9.50
2017,12,12,13,35,9.60
2017,12,12,13,36,9.60
2017,12,12,13,37,9.60
2017,12,12,13,38,9.60
2017,12,12,13,39,9.60
2017,12,12,13,40,9.60
2017,12,12,13,41,9.60
2017,12,12,13,42,9.60
2017,12,12,13,43,9.60
2017,12,12,13,44,9.60
2017,12,12,13,45,9.60
2017,12,12,13,46,9.60
2017,12,12,13,47,9.60
2017,12,12,13,48,9.60
2017,12,12,13,49,9.60
2017,12,12,13,50,9.60
2017,12,12,13,51,9.60
2017,12,12,13,52,9.60
2017,12,12,13,53,9.60
2017,12,12,13,54,9.60
2017,12,12,13,55,9.60
2017,12,12,13,56,9.60
2017,12,12,13,57,9.50
2017,12,12,13,58,9.50
2017,12,12,13,59,9.50
2017,12,12,14,00,9.50
2017,12,12,14,01,9.50
2017,12,12,14,02,9.50
2017,12,12,14,03,9.50
2017,12,12,14,04,9.50
2017,12,12,14,05,9.50
2017,12,12,14,06,9.40
2017,12,12,14,07,9.50
2017,12,12,14,08,9.40
2017,12,12,14,09,9.40
2017,12,12,14,10,9.40
2017,12,12,14,11,9.40
2017,12,12,14,12,9.40
2017,12,12,14,13,9.40
2017,12,12,14,14,9.40
2017,12,12,14,15,9.30
2017,12,12,14,16,9.30
2017,12,12,14,17,9.30
2017,12,12,14,18,9.30
2017,12,12,14,19,9.30
2017,12,12,14,20,9.30
2017,12,12,14,21,9.30
2017,12,12,14,22,9.30
2017,12,12,14,23,9.20
2017,12,12,14,24,9.20
2017,12,12,14,25,9.20
2017,12,12,14,26,9.10
2017,12,12,14,27,9.10
2017,12,12,14,28,9.10
2017,12,12,14,29,9.10
2017,12,12,14,30,9.00
2017,12,12,14,31,9.00
2017,12,12,14,32,9.00
2017,12,12,14,33,9.00
2017,12,12,14,34,8.90
2017,12,12,14,35,8.90
2017,12,12,14,36,8.90
2017,12,12,14,37,8.90
2017,12,12,14,38,8.80
2017,12,12,14,39,8.80
2017,12,12,14,40,8.80
2017,12,12,14,41,8.80
2017,12,12,14,42,8.80
2017,12,12,14,43,8.80
2017,12,12,14,44,8.80
2017,12,12,14,45,8.70
2017,12,12,14,46,8.70
2017,12,12,14,47,8.70
2017,12,12,14,48,8.70
2017,12,12,14,49,8.70
2017,12,12,14,50,8.70
2017,12,12,14,51,8.70
2017,12,12,14,52,8.70
2017,12,12,14,53,8.70
2017,12,12,14,54,8.70
2017,12,12,14,55,8.70
2017,12,12,14,56,8.70
2017,12,12,14,57,8.70
2017,12,12,14,58,8.80
2017,12,12,14,59,8.80
2017,12,12,15,00,8.80
2017,12,12,15,01,8.80
2017,12,12,15,02,8.80
2017,12,12,15,03,8.80
2017,12,12,15,04,8.80
2017,12,12,15,05,8.70
2017,12,12,15,06,8.70
2017,12,12,15,07,8.70
2017,12,12,15,08,8.70
2017,12,12,15,09,8.70
2017,12,12,15,10,8.70
2017,12,12,15,11,8.70
2017,12,12,15,12,8.70
2017,12,12,15,13,8.70
2017,12,12,15,14,8.70
2017,12,12,15,15,8.70
2017,12,12,15,16,8.70
2017,12,12,15,17,8.70
2017,12,12,15,18,8.70
2017,12,12,15,19,8.70
2017,12,12,15,20,8.70
2017,12,12,15,21,8.60
2017,12,12,15,22,8.60
2017,12,12,15,23,8.60
2017,12,12,15,24,8.60
2017,12,12,15,25,8.60
2017,12,12,15,26,8.60
2017,12,12,15,27,8.60
2017,12,12,15,28,8.60
2017,12,12,15,29,8.60
2017,12,12,15,30,8.50
2017,12,12,15,31,8.50
2017,12,12,15,32,8.50
2017,12,12,15,33,8.40
2017,12,12,15,34,8.40
2017,12,12,15,35,8.40
2017,12,12,15,36,8.40
2017,12,12,15,37,8.40
2017,12,12,15,38,8.40
2017,12,12,15,39,8.40
2017,12,12,15,40,8.40
2017,12,12,15,41,8.40
2017,12,12,15,42,8.40
2017,12,12,15,43,8.30
2017,12,12,15,44,8.30
2017,12,12,15,45,8.30
2017,12,12,15,46,8.30
2017,12,12,15,47,8.30
2017,12,12,15,48,8.20
2017,12,12,15,49,8.20
2017,12,12,15,50,8.20
2017,12,12,15,51,8.20
2017,12,12,15,52,8.20
2017,12,12,15,53,8.10
2017,12,12,15,54,8.10
2017,12,12,15,55,8.10
2017,12,12,15,56,8.10
2017,12,12,15,57,8.10
2017,12,12,15,58,8.00
2017,12,12,15,59,8.00
2017,12,12,16,00,8.00
2017,12,12,16,01,8.00
2017,12,12,16,02,7.90
2017,12,12,16,03,7.90
2017,12,12,16,04,7.90
2017,12,12,16,05,7.90
2017,12,12,16,06,7.90
2017,12,12,16,07,7.90
2017,12,12,16,08,7.80
2017,12,12,16,09,7.80
2017,12,12,16,10,7.80
2017,12,12,16,11,7.80
2017,12,12,16,12,7.80
2017,12,12,16,13,7.70
2017,12,12,16,14,7.70
2017,12,12,16,15,7.70
2017,12,12,16,16,7.70
2017,12,12,16,17,7.70
2017,12,12,16,18,7.70
2017,12,12,16,19,7.60
2017,12,12,16,20,7.60
2017,12,12,16,21,7.60
2017,12,12,16,22,7.50
2017,12,12,16,23,7.50
2017,12,12,16,24,7.50
2017,12,12,16,25,7.50
2017,12,12,16,26,7.40
2017,12,12,16,27,7.40
2017,12,12,16,28,7.40
2017,12,12,16,29,7.40
2017,12,12,16,30,7.30
2017,12,12,16,31,7.30
2017,12,12,16,32,7.30
2017,12,12,16,33,7.30
2017,12,12,16,34,7.30
2017,12,12,16,35,7.30
2017,12,12,16,36,7.30
2017,12,12,16,37,7.20
2017,12,12,16,38,7.20
2017,12,12,16,39,7.20
2017,12,12,16,40,7.20
2017,12,12,16,41,7.20
2017,12,12,16,42,7.20
2017,12,12,16,43,7.20
2017,12,12,16,44,7.20
2017,12,12,16,45,7.10
2017,12,12,16,46,7.10
2017,12,12,16,47,7.10
2017,12,12,16,48,7.10
2017,12,12,16,49,7.10
2017,12,12,16,50,7.10
2017,12,12,16,51,7.10
2017,12,12,16,52,7.10
2017,12,12,16,53,7.00
2017,12,12,16,54,7.00
2017,12,12,16,55,7.00
2017,12,12,16,56,7.00
2017,12,12,16,57,7.00
2017,12,12,16,58,7.00
2017,12,12,16,59,7.00
2017,12,12,17,00,7.00
2017,12,12,17,01,7.00
2017,12,12,17,02,7.00
2017,12,12,17,03,7.00
2017,12,12,17,04,6.90
2017,12,12,17,05,6.90
2017,12,12,17,06,6.90
2017,12,12,17,07,6.90
2017,12,12,17,08,6.80
2017,12,12,17,09,6.80
2017,12,12,17,10,6.80
2017,12,12,17,11,6.80
2017,12,12,17,12,6.80
2017,12,12,17,13,6.80
2017,12,12,17,14,6.80
2017,12,12,17,15,6.80
2017,12,12,17,16,6.80
2017,12,12,17,17,6.80
2017,12,12,17,18,6.80
2017,12,12,17,19,6.80
2017,12,12,17,20,6.80
2017,12,12,17,21,6.80
2017,12,12,17,22,6.70
2017,12,12,17,23,6.80
2017,12,12,17,24,6.70
2017,12,12,17,25,6.70
2017,12,12,17,26,6.70
2017,12,12,17,27,6.70
2017,12,12,17,28,6.70
2017,12,12,17,29,6.70
2017,12,12,17,30,6.70
2017,12,12,17,31,6.70
2017,12,12,17,32,6.70
2017,12,12,17,33,6.70
2017,12,12,17,34,6.70
2017,12,12,17,35,6.70
2017,12,12,17,36,6.70
2017,12,12,17,37,6.70
2017,12,12,17,38,6.70
2017,12,12,17,39,6.70
2017,12,12,17,40,6.70
2017,12,12,17,41,6.70
2017,12,12,17,42,6.70
2017,12,12,17,43,6.70
2017,12,12,17,44,6.70
2017,12,12,17,45,6.70
2017,12,12,17,46,6.70
2017,12,12,17,47,6.70
2017,12,12,17,48,6.70
2017,12,12,17,49,6.70
2017,12,12,17,50,6.70
2017,12,12,17,51,6.70
2017,12,12,17,52,6.60
2017,12,12,17,53,6.60
2017,12,12,17,54,6.60
2017,12,12,17,55,6.60
2017,12,12,17,56,6.60
2017,12,12,17,57,6.60
2017,12,12,17,58,6.60
2017,12,12,17,59,6.60
2017,12,12,18,00,6.60
2017,12,12,18,01,6.60
2017,12,12,18,02,6.60
2017,12,12,18,03,6.60
2017,12,12,18,04,6.60
2017,12,12,18,05,6.60
2017,12,12,18,06,6.60